QTR4B OTHH-HECA

Flight info

Callsign QTR4B
Flight time 2h 58m
Altitude 40000
Route TULUB B457 NARMI N697 HIL T540 ENABI L550 NOVPA N697 MENLI L677 CVO
Aircraft A359/H-SDE2E3GHIJ3J4J5LM1ORWXY/LB1D1

Departure

Time 2026-05-04 17:55
Airport Hamad International Airport (OTHH)

Arrival

Time 2026-05-04 20:54
Airport Cairo International Airport (HECA)
Time Latitude Longitude Altitude Speed Heading
2026-05-04 17:13 25.26092 51.60977 36 ft 0 kts 158°
2026-05-04 17:47 25.26099 51.60974 36 ft 4 kts 158°
2026-05-04 17:47 25.26124 51.60962 34 ft 4 kts 158°
2026-05-04 17:47 25.26144 51.60953 34 ft 4 kts 160°
2026-05-04 17:48 25.26170 51.60947 33 ft 4 kts 186°
2026-05-04 17:48 25.26192 51.60956 33 ft 4 kts 240°
2026-05-04 17:48 25.26202 51.60982 32 ft 4 kts 248°
2026-05-04 17:48 25.26207 51.60995 33 ft 4 kts 248°
2026-05-04 17:51 25.26206 51.60994 33 ft 2 kts 248°
2026-05-04 17:51 25.26186 51.60940 35 ft 10 kts 248°
2026-05-04 17:51 25.26157 51.60862 36 ft 12 kts 248°
2026-05-04 17:52 25.26123 51.60771 36 ft 14 kts 248°
2026-05-04 17:52 25.26067 51.60730 34 ft 10 kts 176°
2026-05-04 17:52 25.25986 51.60763 36 ft 14 kts 159°
2026-05-04 17:52 25.25888 51.60805 36 ft 16 kts 159°
2026-05-04 17:53 25.25778 51.60854 36 ft 18 kts 158°
2026-05-04 17:53 25.25676 51.60856 36 ft 14 kts 228°
2026-05-04 17:53 25.25628 51.60755 36 ft 16 kts 249°
2026-05-04 17:53 25.25590 51.60642 34 ft 13 kts 249°
2026-05-04 17:54 25.25598 51.60534 31 ft 15 kts 298°
2026-05-04 17:54 25.25649 51.60492 31 ft 0 kts 339°
2026-05-04 17:54 25.25839 51.60409 34 ft 64 kts 338°
2026-05-04 17:55 25.26458 51.60137 33 ft 126 kts 338°
2026-05-04 17:55 25.27426 51.59708 194 ft 161 kts 337°
2026-05-04 17:55 25.28423 51.59245 971 ft 153 kts 338°
2026-05-04 17:55 25.29424 51.58840 1564 ft 157 kts 342°
2026-05-04 17:56 25.30511 51.58425 1831 ft 173 kts 341°
2026-05-04 17:56 25.31696 51.57919 2092 ft 192 kts 338°
2026-05-04 17:56 25.32996 51.57310 2308 ft 214 kts 338°
2026-05-04 17:56 25.34442 51.56643 2575 ft 235 kts 339°
2026-05-04 17:57 25.35998 51.55939 3018 ft 246 kts 339°
2026-05-04 17:57 25.37602 51.55221 3663 ft 250 kts 339°
2026-05-04 17:57 25.39240 51.54491 4393 ft 252 kts 339°
2026-05-04 17:57 25.40877 51.53763 5059 ft 255 kts 339°
2026-05-04 17:58 25.42535 51.53031 5722 ft 257 kts 339°
2026-05-04 17:58 25.44198 51.52294 6401 ft 259 kts 338°
2026-05-04 17:58 25.45876 51.51547 7016 ft 262 kts 338°
2026-05-04 17:58 25.47606 51.50852 7652 ft 266 kts 345°
2026-05-04 17:59 25.49465 51.50725 8295 ft 272 kts
2026-05-04 17:59 25.51325 51.51218 8962 ft 278 kts 13°
2026-05-04 17:59 25.55097 51.52485 9920 ft 284 kts 13°
2026-05-04 18:00 25.56971 51.53109 10005 ft 285 kts 13°
2026-05-04 18:00 25.58805 51.53716 10006 ft 286 kts 13°
2026-05-04 18:00 25.60743 51.54354 10006 ft 287 kts 13°
2026-05-04 18:00 25.62635 51.54975 10006 ft 287 kts 13°
2026-05-04 18:01 25.64585 51.55559 10002 ft 286 kts
2026-05-04 18:01 25.66548 51.55568 10023 ft 280 kts 346°
2026-05-04 18:01 25.68436 51.54988 10203 ft 286 kts 340°
2026-05-04 18:02 25.72452 51.53528 10725 ft 320 kts 340°
2026-05-04 18:02 25.74619 51.52745 11014 ft 334 kts 340°
2026-05-04 18:02 25.76858 51.51941 11481 ft 342 kts 340°
2026-05-04 18:02 25.79143 51.51124 12001 ft 347 kts 340°
2026-05-04 18:03 25.81459 51.50293 12555 ft 352 kts 340°
2026-05-04 18:03 25.83725 51.49234 13097 ft 355 kts 328°
2026-05-04 18:03 25.85653 51.47535 13653 ft 357 kts 312°
2026-05-04 18:03 25.87248 51.45407 14171 ft 360 kts 307°
2026-05-04 18:04 25.88781 51.43197 14739 ft 362 kts 307°
2026-05-04 18:04 25.90325 51.40968 15260 ft 366 kts 307°
2026-05-04 18:04 25.93478 51.36439 16267 ft 374 kts 306°
2026-05-04 18:05 25.95082 51.34142 16773 ft 378 kts 306°
2026-05-04 18:05 25.96177 51.32574 17097 ft 381 kts 306°
2026-05-04 18:05 25.97666 51.30126 17605 ft 384 kts 298°
2026-05-04 18:05 25.98939 51.27505 18120 ft 387 kts 296°
2026-05-04 18:06 26.01426 51.22159 19108 ft 392 kts 296°
2026-05-04 18:06 26.02682 51.19462 19651 ft 394 kts 296°
2026-05-04 18:06 26.03944 51.16760 20246 ft 394 kts 296°
2026-05-04 18:07 26.05211 51.14044 20796 ft 397 kts 296°
2026-05-04 18:07 26.06486 51.11312 21318 ft 400 kts 295°
2026-05-04 18:07 26.07770 51.08560 21837 ft 402 kts 295°
2026-05-04 18:07 26.09063 51.05786 22352 ft 405 kts 295°
2026-05-04 18:08 26.10364 51.02994 22874 ft 408 kts 295°
2026-05-04 18:08 26.11675 51.00179 23413 ft 411 kts 295°
2026-05-04 18:08 26.12951 50.97279 23868 ft 412 kts 293°
2026-05-04 18:08 26.14141 50.94374 24362 ft 414 kts 292°
2026-05-04 18:09 26.16487 50.88499 25356 ft 417 kts 291°
2026-05-04 18:09 26.18864 50.82597 26393 ft 419 kts 291°
2026-05-04 18:10 26.20069 50.79634 26870 ft 421 kts 291°
2026-05-04 18:10 26.21298 50.76622 27347 ft 423 kts 291°
2026-05-04 18:10 26.22523 50.73630 27808 ft 425 kts 291°
2026-05-04 18:10 26.23751 50.70631 28250 ft 427 kts 291°
2026-05-04 18:11 26.24934 50.67638 28700 ft 428 kts 288°
2026-05-04 18:11 26.25829 50.64441 29149 ft 426 kts 280°
2026-05-04 18:11 26.26394 50.61195 29584 ft 427 kts 277°
2026-05-04 18:11 26.26871 50.57935 29991 ft 428 kts 276°
2026-05-04 18:12 26.27300 50.54689 30325 ft 430 kts 275°
2026-05-04 18:12 26.27715 50.51382 30636 ft 432 kts 275°
2026-05-04 18:12 26.28128 50.48056 31001 ft 434 kts 275°
2026-05-04 18:12 26.28544 50.44729 31370 ft 434 kts 275°
2026-05-04 18:13 26.28969 50.41351 31690 ft 436 kts 275°
2026-05-04 18:13 26.29390 50.38039 31984 ft 438 kts 275°
2026-05-04 18:13 26.30672 50.31364 32562 ft 446 kts 285°
2026-05-04 18:14 26.31731 50.28110 32844 ft 448 kts 287°
2026-05-04 18:14 26.32862 50.24861 33095 ft 450 kts 287°
2026-05-04 18:14 26.34030 50.21616 33361 ft 452 kts 288°
2026-05-04 18:15 26.36399 50.15126 34025 ft 451 kts 288°
2026-05-04 18:15 26.38743 50.08666 34676 ft 448 kts 287°
2026-05-04 18:15 26.39902 50.05450 35041 ft 445 kts 287°
2026-05-04 18:16 26.41054 50.02244 35351 ft 444 kts 287°
2026-05-04 18:16 26.42197 49.99052 35639 ft 444 kts 287°
2026-05-04 18:16 26.43340 49.95856 35901 ft 443 kts 287°
2026-05-04 18:17 26.45623 49.89464 36414 ft 443 kts 287°
2026-05-04 18:17 26.46761 49.86275 36691 ft 442 kts 286°
2026-05-04 18:17 26.49027 49.79917 37211 ft 440 kts 286°
2026-05-04 18:18 26.50004 49.76708 37449 ft 436 kts 282°
2026-05-04 18:18 26.50870 49.73470 37727 ft 434 kts 281°
2026-05-04 18:18 26.51708 49.70233 37953 ft 433 kts 281°
2026-05-04 18:18 26.52528 49.67003 38189 ft 433 kts 280°
2026-05-04 18:19 26.54149 49.60544 38607 ft 431 kts 280°
2026-05-04 18:19 26.54957 49.57319 38759 ft 431 kts 280°
2026-05-04 18:19 26.55764 49.54100 38906 ft 431 kts 280°
2026-05-04 18:20 26.56574 49.50874 39022 ft 431 kts 280°
2026-05-04 18:20 26.57385 49.47638 39082 ft 433 kts 280°
2026-05-04 18:20 26.58197 49.44401 39205 ft 433 kts 280°
2026-05-04 18:20 26.59009 49.41163 39363 ft 433 kts 280°
2026-05-04 18:21 26.59833 49.37879 39509 ft 432 kts 280°
2026-05-04 18:21 26.60641 49.34654 39691 ft 431 kts 280°
2026-05-04 18:21 26.62253 49.28207 39791 ft 430 kts 280°
2026-05-04 18:22 26.63861 49.21753 39797 ft 431 kts 280°
2026-05-04 18:22 26.65467 49.15294 39804 ft 431 kts 280°
2026-05-04 18:23 26.67071 49.08834 39799 ft 431 kts 280°
2026-05-04 18:23 26.68673 49.02370 39804 ft 431 kts 280°
2026-05-04 18:24 26.70271 48.95907 39825 ft 431 kts 280°
2026-05-04 18:24 26.71863 48.89463 39809 ft 429 kts 280°
2026-05-04 18:25 26.73449 48.83020 39806 ft 428 kts 279°
2026-05-04 18:25 26.75021 48.76618 39809 ft 428 kts 279°
2026-05-04 18:26 26.76284 48.70155 39813 ft 422 kts 271°
2026-05-04 18:26 26.76415 48.63636 39814 ft 418 kts 265°
2026-05-04 18:27 26.76258 48.57135 39815 ft 418 kts 265°
2026-05-04 18:27 26.76058 48.50643 39815 ft 417 kts 265°
2026-05-04 18:28 26.75867 48.44148 39823 ft 418 kts 265°
2026-05-04 18:28 26.75684 48.37640 39823 ft 419 kts 265°
2026-05-04 18:29 26.75507 48.31123 39823 ft 420 kts 265°
2026-05-04 18:29 26.75326 48.24598 39824 ft 420 kts 265°
2026-05-04 18:30 26.75043 48.14785 39833 ft 423 kts 264°
2026-05-04 18:31 26.74850 48.08204 39841 ft 423 kts 264°
2026-05-04 18:31 26.74656 48.01619 39841 ft 423 kts 264°
2026-05-04 18:32 26.74458 47.95026 39837 ft 426 kts 264°
2026-05-04 18:32 26.74309 47.88382 39839 ft 429 kts 268°
2026-05-04 18:33 26.74572 47.81706 39849 ft 430 kts 268°
2026-05-04 18:33 26.74908 47.75025 39833 ft 431 kts 269°
2026-05-04 18:34 26.75253 47.68322 39833 ft 432 kts 269°
2026-05-04 18:34 26.75591 47.61614 39843 ft 432 kts 269°
2026-05-04 18:35 26.75920 47.54907 39839 ft 432 kts 269°
2026-05-04 18:35 26.76247 47.48180 39841 ft 433 kts 268°
2026-05-04 18:36 26.76571 47.41446 39843 ft 433 kts 268°
2026-05-04 18:36 26.77224 47.34717 39844 ft 437 kts 274°
2026-05-04 18:37 26.78218 47.28018 39844 ft 437 kts 274°
2026-05-04 18:37 26.79260 47.21329 39838 ft 436 kts 274°
2026-05-04 18:38 26.80297 47.14648 39838 ft 435 kts 274°
2026-05-04 18:38 26.81321 47.07982 39837 ft 434 kts 274°
2026-05-04 18:39 26.82337 47.01322 39834 ft 434 kts 274°
2026-05-04 18:39 26.83184 46.95746 39847 ft 434 kts 274°
2026-05-04 18:40 26.84193 46.89100 39839 ft 432 kts 274°
2026-05-04 18:40 26.85195 46.82471 39831 ft 431 kts 274°
2026-05-04 18:41 26.86192 46.75852 39835 ft 431 kts 274°
2026-05-04 18:41 26.87185 46.69235 39831 ft 431 kts 274°
2026-05-04 18:42 26.88175 46.62618 39832 ft 431 kts 274°
2026-05-04 18:42 26.89162 46.56000 39840 ft 431 kts 274°
2026-05-04 18:43 26.90145 46.49396 39828 ft 429 kts 274°
2026-05-04 18:43 26.91121 46.42814 39835 ft 428 kts 274°
2026-05-04 18:44 26.92096 46.36247 39830 ft 427 kts 274°
2026-05-04 18:44 26.93068 46.29690 39831 ft 426 kts 274°
2026-05-04 18:45 26.94033 46.23140 39833 ft 426 kts 274°
2026-05-04 18:45 26.94996 46.16589 39821 ft 426 kts 274°
2026-05-04 18:46 26.95957 46.10032 39829 ft 427 kts 274°
2026-05-04 18:46 26.96917 46.03468 39841 ft 427 kts 273°
2026-05-04 18:47 26.97879 45.96876 39824 ft 425 kts 273°
2026-05-04 18:47 26.98821 45.90384 39833 ft 425 kts 273°
2026-05-04 18:48 26.99775 45.83789 39829 ft 426 kts 273°
2026-05-04 18:48 27.00714 45.77281 39839 ft 426 kts 273°
2026-05-04 18:49 27.01656 45.70731 39831 ft 425 kts 273°
2026-05-04 18:49 27.02594 45.64187 39859 ft 425 kts 273°
2026-05-04 18:50 27.03527 45.57656 39843 ft 423 kts 273°
2026-05-04 18:50 27.04459 45.51142 39840 ft 422 kts 273°
2026-05-04 18:51 27.05380 45.44642 39843 ft 422 kts 273°
2026-05-04 18:51 27.06194 45.38130 39844 ft 421 kts 271°
2026-05-04 18:52 27.06881 45.31613 39842 ft 420 kts 271°
2026-05-04 18:52 27.07574 45.25098 39845 ft 421 kts 271°
2026-05-04 18:53 27.08293 45.18545 39853 ft 420 kts 271°
2026-05-04 18:53 27.09013 45.12041 39844 ft 420 kts 271°
2026-05-04 18:54 27.09731 45.05537 39833 ft 420 kts 271°
2026-05-04 18:54 27.10443 44.99039 39855 ft 420 kts 271°
2026-05-04 18:55 27.11153 44.92532 39844 ft 420 kts 271°
2026-05-04 18:55 27.12213 44.82768 39841 ft 420 kts 271°
2026-05-04 18:56 27.12916 44.76258 39853 ft 420 kts 271°
2026-05-04 18:56 27.13620 44.69746 39843 ft 420 kts 271°
2026-05-04 18:57 27.14318 44.63232 39840 ft 420 kts 271°
2026-05-04 18:57 27.15011 44.56721 39840 ft 420 kts 271°
2026-05-04 18:58 27.15701 44.50203 39839 ft 421 kts 271°
2026-05-04 18:58 27.16391 44.43680 39855 ft 421 kts 271°
2026-05-04 18:59 27.17080 44.37159 39857 ft 420 kts 271°
2026-05-04 18:59 27.17762 44.30643 39847 ft 420 kts 271°
2026-05-04 19:00 27.18432 44.24126 39855 ft 420 kts 271°
2026-05-04 19:00 27.19100 44.17614 39864 ft 419 kts 270°
2026-05-04 19:01 27.19766 44.11116 39861 ft 419 kts 271°
2026-05-04 19:01 27.20430 44.04608 39865 ft 419 kts 271°
2026-05-04 19:02 27.21091 43.98100 39868 ft 419 kts 270°
2026-05-04 19:02 27.21753 43.91557 39867 ft 419 kts 270°
2026-05-04 19:03 27.22406 43.85058 39873 ft 418 kts 270°
2026-05-04 19:03 27.23057 43.78558 39873 ft 419 kts 270°
2026-05-04 19:04 27.23705 43.72050 39878 ft 419 kts 270°
2026-05-04 19:04 27.24357 43.65541 39880 ft 419 kts 270°
2026-05-04 19:05 27.25000 43.59035 39885 ft 420 kts 270°
2026-05-04 19:05 27.25640 43.52509 39883 ft 420 kts 270°
2026-05-04 19:06 27.26280 43.45978 39886 ft 420 kts 270°
2026-05-04 19:06 27.26917 43.39446 39896 ft 421 kts 270°
2026-05-04 19:07 27.27552 43.32906 39893 ft 421 kts 270°
2026-05-04 19:07 27.28185 43.26363 39894 ft 421 kts 270°
2026-05-04 19:08 27.28814 43.19821 39893 ft 420 kts 270°
2026-05-04 19:08 27.29439 43.13299 39895 ft 420 kts 270°
2026-05-04 19:09 27.30060 43.06773 39901 ft 420 kts 270°
2026-05-04 19:09 27.30678 43.00240 39925 ft 420 kts 270°
2026-05-04 19:10 27.31294 42.93716 39908 ft 419 kts 270°
2026-05-04 19:10 27.31905 42.87201 39910 ft 419 kts 270°
2026-05-04 19:11 27.32512 42.80686 39913 ft 419 kts 270°
2026-05-04 19:11 27.33117 42.74171 39915 ft 419 kts 270°
2026-05-04 19:12 27.34018 42.64406 39921 ft 419 kts 270°
2026-05-04 19:13 27.34615 42.57893 39932 ft 418 kts 270°
2026-05-04 19:13 27.35207 42.51401 39930 ft 417 kts 270°
2026-05-04 19:14 27.35796 42.44913 39934 ft 417 kts 270°
2026-05-04 19:14 27.36381 42.38436 39949 ft 416 kts 270°
2026-05-04 19:15 27.36961 42.31973 39940 ft 415 kts 270°
2026-05-04 19:15 27.37536 42.25518 39943 ft 416 kts 270°
2026-05-04 19:16 27.38015 42.20096 39944 ft 416 kts 270°
2026-05-04 19:16 27.38588 42.13624 39952 ft 414 kts 270°
2026-05-04 19:17 27.39156 42.07179 39954 ft 414 kts 270°
2026-05-04 19:17 27.39719 42.00737 39964 ft 413 kts 270°
2026-05-04 19:18 27.40278 41.94299 39966 ft 413 kts 270°
2026-05-04 19:18 27.40834 41.87882 39965 ft 412 kts 270°
2026-05-04 19:19 27.41386 41.81466 39976 ft 412 kts 270°
2026-05-04 19:19 27.41934 41.75051 39978 ft 412 kts 270°
2026-05-04 19:20 27.43052 41.68684 39993 ft 422 kts 281°
2026-05-04 19:20 27.45623 41.62637 39993 ft 434 kts 291°
2026-05-04 19:21 27.48809 41.56820 39993 ft 437 kts 293°
2026-05-04 19:21 27.52076 41.51041 39991 ft 437 kts 293°
2026-05-04 19:22 27.55317 41.45265 39981 ft 436 kts 293°
2026-05-04 19:22 27.58532 41.39476 39977 ft 435 kts 293°
2026-05-04 19:23 27.61735 41.33685 39984 ft 435 kts 293°
2026-05-04 19:23 27.64956 41.27854 39963 ft 435 kts 292°
2026-05-04 19:24 27.68127 41.22106 39962 ft 435 kts 292°
2026-05-04 19:24 27.71342 41.16274 39957 ft 435 kts 292°
2026-05-04 19:25 27.74532 41.10477 39951 ft 435 kts 292°
2026-05-04 19:25 27.77699 41.04716 39962 ft 435 kts 292°
2026-05-04 19:26 27.80891 40.98917 39957 ft 435 kts 292°
2026-05-04 19:26 27.84091 40.93073 39944 ft 434 kts 292°
2026-05-04 19:27 27.87263 40.87274 39947 ft 434 kts 292°
2026-05-04 19:27 27.90439 40.81463 39948 ft 434 kts 292°
2026-05-04 19:28 27.93613 40.75649 39969 ft 435 kts 292°
2026-05-04 19:28 27.96785 40.69831 39943 ft 435 kts 292°
2026-05-04 19:29 27.99957 40.64008 39944 ft 435 kts 292°
2026-05-04 19:29 28.03125 40.58185 39944 ft 434 kts 292°
2026-05-04 19:30 28.06291 40.52356 39936 ft 435 kts 292°
2026-05-04 19:30 28.09454 40.46523 39953 ft 435 kts 292°
2026-05-04 19:31 28.12611 40.40696 39937 ft 434 kts 292°
2026-05-04 19:31 28.15764 40.34866 39936 ft 434 kts 292°
2026-05-04 19:32 28.18913 40.29034 39935 ft 434 kts 292°
2026-05-04 19:32 28.22061 40.23197 39940 ft 434 kts 292°
2026-05-04 19:33 28.25208 40.17352 39935 ft 434 kts 292°
2026-05-04 19:33 28.28354 40.11506 39938 ft 434 kts 291°
2026-05-04 19:34 28.31834 40.05828 39938 ft 443 kts 297°
2026-05-04 19:34 28.35672 40.00351 39944 ft 444 kts 298°
2026-05-04 19:35 28.39569 39.94901 39940 ft 444 kts 299°
2026-05-04 19:35 28.43461 39.89448 39940 ft 444 kts 298°
2026-05-04 19:36 28.47367 39.83949 39946 ft 444 kts 298°
2026-05-04 19:36 28.51237 39.78484 39959 ft 444 kts 298°
2026-05-04 19:37 28.55075 39.73058 39953 ft 442 kts 298°
2026-05-04 19:37 28.58925 39.67608 39949 ft 442 kts 298°
2026-05-04 19:38 28.62776 39.62148 39952 ft 442 kts 298°
2026-05-04 19:38 28.66626 39.56684 39970 ft 442 kts 298°
2026-05-04 19:39 28.70470 39.51223 39961 ft 442 kts 298°
2026-05-04 19:39 28.74302 39.45755 39961 ft 440 kts 296°
2026-05-04 19:40 28.78121 39.40280 39959 ft 442 kts 298°
2026-05-04 19:40 28.81968 39.34820 39986 ft 442 kts 298°
2026-05-04 19:41 28.85801 39.29365 39969 ft 441 kts 298°
2026-05-04 19:41 28.89625 39.23901 39965 ft 440 kts 298°
2026-05-04 19:42 28.93439 39.18439 39969 ft 440 kts 298°
2026-05-04 19:42 28.97248 39.12972 39979 ft 440 kts 298°
2026-05-04 19:43 29.01060 39.07496 39971 ft 440 kts 298°
2026-05-04 19:43 29.04869 39.02020 39979 ft 440 kts 298°
2026-05-04 19:44 29.08378 38.96380 39979 ft 428 kts 289°
2026-05-04 19:44 29.10502 38.90205 39980 ft 410 kts 276°
2026-05-04 19:45 29.11089 38.83832 39985 ft 401 kts 266°
2026-05-04 19:45 29.11088 38.77466 39981 ft 400 kts 264°
2026-05-04 19:46 29.11016 38.71106 39979 ft 400 kts 264°
2026-05-04 19:46 29.10959 38.64752 39988 ft 400 kts 265°
2026-05-04 19:47 29.10918 38.58397 39976 ft 399 kts 265°
2026-05-04 19:47 29.10879 38.52005 39967 ft 399 kts 265°
2026-05-04 19:48 29.10838 38.45697 39975 ft 399 kts 265°
2026-05-04 19:48 29.10792 38.39353 39974 ft 399 kts 265°
2026-05-04 19:49 29.10748 38.33005 39971 ft 399 kts 265°
2026-05-04 19:49 29.10694 38.26617 39976 ft 399 kts 265°
2026-05-04 19:50 29.10636 38.20266 39977 ft 399 kts 265°
2026-05-04 19:50 29.10577 38.13956 39984 ft 400 kts 264°
2026-05-04 19:51 29.10515 38.07596 39984 ft 400 kts 264°
2026-05-04 19:51 29.10451 38.01236 39953 ft 400 kts 264°
2026-05-04 19:52 29.10395 37.95919 39979 ft 398 kts 264°
2026-05-04 19:52 29.10323 37.89596 39987 ft 397 kts 264°
2026-05-04 19:53 29.10245 37.83287 39986 ft 397 kts 264°
2026-05-04 19:53 29.10167 37.76971 39989 ft 397 kts 264°
2026-05-04 19:54 29.10089 37.70660 40015 ft 397 kts 264°
2026-05-04 19:54 29.10009 37.64350 39989 ft 397 kts 264°
2026-05-04 19:55 29.09931 37.58034 39991 ft 397 kts 264°
2026-05-04 19:55 29.09847 37.51714 39994 ft 398 kts 264°
2026-05-04 19:56 29.09779 37.45435 39995 ft 398 kts 265°
2026-05-04 19:56 29.09741 37.39113 39999 ft 398 kts 265°
2026-05-04 19:57 29.09699 37.32785 39984 ft 398 kts 265°
2026-05-04 19:57 29.09650 37.26456 40010 ft 398 kts 265°
2026-05-04 19:58 29.09594 37.20128 40020 ft 398 kts 265°
2026-05-04 19:58 29.09534 37.13787 40007 ft 399 kts 265°
2026-05-04 19:59 29.09473 37.07447 40010 ft 399 kts 265°
2026-05-04 19:59 29.09408 37.01104 40009 ft 399 kts 265°
2026-05-04 20:00 29.09341 36.94760 40013 ft 399 kts 265°
2026-05-04 20:00 29.09270 36.88417 40014 ft 400 kts 265°
2026-05-04 20:01 29.09197 36.82062 40015 ft 400 kts 265°
2026-05-04 20:01 29.09120 36.75667 40014 ft 400 kts 265°
2026-05-04 20:02 29.09041 36.69352 40015 ft 400 kts 265°
2026-05-04 20:02 29.08958 36.62960 39987 ft 399 kts 265°
2026-05-04 20:03 29.08872 36.56613 40017 ft 399 kts 265°
2026-05-04 20:03 29.08784 36.50317 40018 ft 399 kts 265°
2026-05-04 20:04 29.08676 36.43983 40020 ft 398 kts 264°
2026-05-04 20:04 29.08496 36.37615 40020 ft 398 kts 264°
2026-05-04 20:05 29.08307 36.31295 40021 ft 398 kts 264°
2026-05-04 20:05 29.08126 36.25011 40038 ft 398 kts 264°
2026-05-04 20:06 29.07946 36.18650 40023 ft 398 kts 264°
2026-05-04 20:06 29.07766 36.12331 40024 ft 398 kts 264°
2026-05-04 20:07 29.07582 36.06011 40025 ft 398 kts 264°
2026-05-04 20:07 29.07396 35.99735 40029 ft 398 kts 264°
2026-05-04 20:08 29.07206 35.93421 39986 ft 397 kts 264°
2026-05-04 20:08 29.07013 35.87067 40032 ft 397 kts 264°
2026-05-04 20:09 29.06825 35.80759 40041 ft 398 kts 264°
2026-05-04 20:09 29.06622 35.74443 40066 ft 398 kts 264°
2026-05-04 20:10 29.06417 35.68130 40045 ft 397 kts 264°
2026-05-04 20:10 29.06212 35.61828 40052 ft 397 kts 264°
2026-05-04 20:11 29.06005 35.55533 40051 ft 397 kts 264°
2026-05-04 20:11 29.05795 35.49230 40064 ft 397 kts 264°
2026-05-04 20:12 29.05580 35.42910 40061 ft 398 kts 264°
2026-05-04 20:12 29.05363 35.36579 40060 ft 399 kts 264°
2026-05-04 20:13 29.05144 35.30254 40061 ft 399 kts 264°
2026-05-04 20:13 29.04928 35.23919 40079 ft 399 kts 264°
2026-05-04 20:14 29.04700 35.17585 40052 ft 399 kts 264°
2026-05-04 20:14 29.04467 35.11261 40052 ft 398 kts 264°
2026-05-04 20:15 29.04233 35.04941 40054 ft 398 kts 264°
2026-05-04 20:15 29.03999 34.98622 40067 ft 398 kts 264°
2026-05-04 20:16 29.03762 34.92297 40033 ft 399 kts 264°
2026-05-04 20:16 29.03521 34.85963 40032 ft 399 kts 264°
2026-05-04 20:17 29.03329 34.79632 40031 ft 399 kts 265°
2026-05-04 20:17 29.03258 34.73324 40048 ft 399 kts 265°
2026-05-04 20:18 29.03598 34.66920 40036 ft 406 kts 274°
2026-05-04 20:18 29.05081 34.60674 40049 ft 413 kts 281°
2026-05-04 20:19 29.06901 34.54440 40048 ft 413 kts 282°
2026-05-04 20:19 29.08761 34.48224 40060 ft 413 kts 282°
2026-05-04 20:20 29.10603 34.41991 40070 ft 414 kts 282°
2026-05-04 20:20 29.12429 34.35744 40069 ft 415 kts 282°
2026-05-04 20:21 29.14256 34.29475 40077 ft 415 kts 282°
2026-05-04 20:21 29.16989 34.20074 40095 ft 416 kts 282°
2026-05-04 20:22 29.18810 34.13797 40090 ft 415 kts 282°
2026-05-04 20:22 29.20627 34.07531 40095 ft 415 kts 282°
2026-05-04 20:23 29.22438 34.01267 40090 ft 415 kts 282°
2026-05-04 20:23 29.24247 33.94993 40109 ft 415 kts 282°
2026-05-04 20:24 29.26053 33.88728 40100 ft 415 kts 282°
2026-05-04 20:24 29.27857 33.82454 40101 ft 415 kts 282°
2026-05-04 20:25 29.29658 33.76177 40100 ft 415 kts 282°
2026-05-04 20:25 29.31458 33.69893 40101 ft 415 kts 282°
2026-05-04 20:26 29.33252 33.63615 40097 ft 415 kts 282°
2026-05-04 20:26 29.35049 33.57317 40097 ft 416 kts 281°
2026-05-04 20:27 29.36801 33.51006 40107 ft 415 kts 281°
2026-05-04 20:27 29.38589 33.44710 40101 ft 416 kts 282°
2026-05-04 20:28 29.40407 33.38411 40101 ft 416 kts 282°
2026-05-04 20:28 29.42217 33.32067 40103 ft 416 kts 282°
2026-05-04 20:29 29.43998 33.25768 40100 ft 415 kts 282°
2026-05-04 20:29 29.45763 33.19505 40099 ft 415 kts 282°
2026-05-04 20:30 29.47536 33.13198 40109 ft 415 kts 282°
2026-05-04 20:30 29.49307 33.06882 40106 ft 416 kts 282°
2026-05-04 20:31 29.51077 33.00566 40101 ft 416 kts 282°
2026-05-04 20:31 29.52843 32.94255 39942 ft 411 kts 282°
2026-05-04 20:32 29.53435 32.92143 39518 ft 411 kts 282°
2026-05-04 20:32 29.54308 32.89014 38778 ft 411 kts 282°
2026-05-04 20:32 29.54975 32.86620 37797 ft 409 kts 282°
2026-05-04 20:32 29.55795 32.83673 36592 ft 409 kts 282°
2026-05-04 20:33 29.56646 32.80620 35925 ft 395 kts 283°
2026-05-04 20:33 29.57477 32.77646 35307 ft 389 kts 283°
2026-05-04 20:33 29.58303 32.74665 34617 ft 393 kts 283°
2026-05-04 20:33 29.59134 32.71656 33844 ft 397 kts 283°
2026-05-04 20:34 29.59969 32.68626 33033 ft 398 kts 283°
2026-05-04 20:34 29.60773 32.65596 32515 ft 393 kts 282°
2026-05-04 20:34 29.61478 32.62591 32004 ft 388 kts 281°
2026-05-04 20:34 29.62132 32.59597 31481 ft 385 kts 281°
2026-05-04 20:35 29.62770 32.56623 30960 ft 381 kts 281°
2026-05-04 20:35 29.63406 32.53680 30417 ft 378 kts 281°
2026-05-04 20:35 29.64048 32.50759 29853 ft 375 kts 282°
2026-05-04 20:35 29.64692 32.47865 29317 ft 371 kts 282°
2026-05-04 20:36 29.65334 32.45013 28799 ft 366 kts 282°
2026-05-04 20:36 29.65970 32.42197 28272 ft 362 kts 282°
2026-05-04 20:36 29.66599 32.39413 27794 ft 358 kts 282°
2026-05-04 20:36 29.67221 32.36659 27299 ft 355 kts 282°
2026-05-04 20:37 29.67837 32.33924 26812 ft 354 kts 282°
2026-05-04 20:37 29.68452 32.31189 26314 ft 353 kts 282°
2026-05-04 20:37 29.69057 32.28492 25803 ft 352 kts 282°
2026-05-04 20:37 29.69667 32.25772 25311 ft 351 kts 282°
2026-05-04 20:38 29.70275 32.23062 24803 ft 349 kts 282°
2026-05-04 20:38 29.70879 32.20362 24303 ft 348 kts 282°
2026-05-04 20:38 29.71481 32.17678 23796 ft 347 kts 282°
2026-05-04 20:38 29.72081 32.14997 23224 ft 345 kts 282°
2026-05-04 20:39 29.72676 32.12331 22691 ft 343 kts 282°
2026-05-04 20:39 29.73274 32.09648 22168 ft 340 kts 282°
2026-05-04 20:39 29.73860 32.07018 21650 ft 338 kts 282°
2026-05-04 20:39 29.74441 32.04407 21127 ft 336 kts 282°
2026-05-04 20:40 29.75017 32.01815 20608 ft 334 kts 282°
2026-05-04 20:40 29.75635 31.99240 20097 ft 337 kts 287°
2026-05-04 20:40 29.76822 31.96845 19605 ft 352 kts 302°
2026-05-04 20:40 29.78356 31.94706 19101 ft 340 kts 307°
2026-05-04 20:41 29.80065 31.92905 18580 ft 330 kts 318°
2026-05-04 20:41 29.82170 31.91821 17865 ft 336 kts 337°
2026-05-04 20:41 29.84450 31.91281 17122 ft 332 kts 341°
2026-05-04 20:41 29.86697 31.90818 16383 ft 324 kts 341°
2026-05-04 20:42 29.88889 31.90343 15672 ft 317 kts 341°
2026-05-04 20:42 29.91034 31.89865 14983 ft 311 kts 341°
2026-05-04 20:42 29.93134 31.89386 14309 ft 305 kts 341°
2026-05-04 20:42 29.95200 31.88903 13584 ft 300 kts 341°
2026-05-04 20:43 29.97223 31.88394 12844 ft 294 kts 339°
2026-05-04 20:43 29.99194 31.87830 12115 ft 289 kts 339°
2026-05-04 20:43 30.01126 31.87256 11408 ft 285 kts 339°
2026-05-04 20:43 30.03029 31.86680 10699 ft 281 kts 339°
2026-05-04 20:44 30.04905 31.86098 10016 ft 277 kts 339°
2026-05-04 20:44 30.06757 31.85511 9266 ft 275 kts 339°
2026-05-04 20:44 30.08592 31.84918 8509 ft 272 kts 339°
2026-05-04 20:44 30.10404 31.84314 7790 ft 270 kts 339°
2026-05-04 20:45 30.12194 31.83704 7198 ft 267 kts 339°
2026-05-04 20:45 30.13968 31.83092 6694 ft 263 kts 339°
2026-05-04 20:45 30.15670 31.82440 6155 ft 253 kts 334°
2026-05-04 20:45 30.17065 31.81336 5616 ft 239 kts 308°
2026-05-04 20:46 30.17937 31.79750 5084 ft 231 kts 296°
2026-05-04 20:46 30.18633 31.78092 4552 ft 227 kts 295°
2026-05-04 20:46 30.19283 31.76446 4009 ft 223 kts 295°
2026-05-04 20:46 30.19897 31.74846 3728 ft 210 kts 295°
2026-05-04 20:47 30.20468 31.73324 3536 ft 204 kts 295°
2026-05-04 20:47 30.20926 31.71770 3363 ft 205 kts 287°
2026-05-04 20:47 30.21225 31.70160 3173 ft 205 kts 284°
2026-05-04 20:47 30.21498 31.68538 3028 ft 204 kts 284°
2026-05-04 20:48 30.21749 31.66986 3003 ft 188 kts 284°
2026-05-04 20:48 30.21970 31.65542 3013 ft 177 kts 284°
2026-05-04 20:48 30.22179 31.64154 3015 ft 175 kts 284°
2026-05-04 20:48 30.22391 31.62768 3011 ft 174 kts 283°
2026-05-04 20:49 30.22605 31.61393 3013 ft 173 kts 284°
2026-05-04 20:49 30.22812 31.60062 3006 ft 165 kts 283°
2026-05-04 20:49 30.23011 31.58767 3013 ft 164 kts 284°
2026-05-04 20:49 30.23025 31.57441 3005 ft 174 kts 255°
2026-05-04 20:50 30.22350 31.56272 3029 ft 176 kts 234°
2026-05-04 20:50 30.21524 31.55221 3019 ft 177 kts 232°
2026-05-04 20:50 30.20674 31.54188 3024 ft 178 kts 232°
2026-05-04 20:50 30.19830 31.53142 2953 ft 178 kts 234°
2026-05-04 20:51 30.19020 31.52059 2726 ft 177 kts 236°
2026-05-04 20:51 30.18227 31.50978 2488 ft 175 kts 235°
2026-05-04 20:51 30.17444 31.49924 2233 ft 169 kts 235°
2026-05-04 20:51 30.16703 31.48927 2012 ft 158 kts 237°
2026-05-04 20:52 30.16011 31.47992 1802 ft 148 kts 237°
2026-05-04 20:52 30.15363 31.47115 1622 ft 140 kts 237°
2026-05-04 20:52 30.14745 31.46258 1420 ft 138 kts 237°
2026-05-04 20:52 30.14136 31.45393 1165 ft 140 kts 236°
2026-05-04 20:53 30.13512 31.44542 910 ft 138 kts 236°
2026-05-04 20:53 30.12889 31.43711 645 ft 136 kts 234°
2026-05-04 20:53 30.12271 31.42891 409 ft 135 kts 234°
2026-05-04 20:53 30.11677 31.42099 378 ft 121 kts 231°
2026-05-04 20:54 30.11217 31.41479 379 ft 83 kts 228°
2026-05-04 20:54 30.10919 31.41090 379 ft 46 kts 229°
2026-05-04 20:54 30.10766 31.40872 378 ft 24 kts 243°
2026-05-04 20:54 30.10780 31.40722 381 ft 15 kts 310°
2026-05-04 20:55 30.10814 31.40683 381 ft 1 kts 317°
2026-05-04 20:55 30.10828 31.40671 381 ft 6 kts 326°
2026-05-04 20:55 30.10877 31.40663 381 ft 10 kts 12°
2026-05-04 20:55 30.10941 31.40727 381 ft 14 kts 47°
2026-05-04 20:56 30.11015 31.40816 381 ft 15 kts 36°
2026-05-04 20:56 30.11083 31.40778 381 ft 12 kts 278°
2026-05-04 20:56 30.11043 31.40695 381 ft 13 kts 228°
2026-05-04 20:56 30.10972 31.40602 380 ft 17 kts 229°
2026-05-04 20:57 30.10920 31.40484 380 ft 17 kts 273°
2026-05-04 20:57 30.10953 31.40348 380 ft 18 kts 287°
2026-05-04 20:57 30.10984 31.40230 380 ft 9 kts 287°
2026-05-04 20:57 30.11010 31.40160 380 ft 10 kts 311°
2026-05-04 20:58 30.11070 31.40154 380 ft 9 kts 14°
2026-05-04 20:58 30.11092 31.40163 380 ft 3 kts 18°
2026-05-04 20:58 30.11094 31.40164 380 ft 0 kts 18°